Powrót do katalogu

COSMOS 1174

AktywnyMilitariaLEO
NORAD 11765·PAYLOAD·🇷🇺 Russia

Wystrzelony Apr 18, 1980 z Baikonur Cosmodrome

Loading…

Następne Przeloty (najbliższe 24 godziny)

TLE

ŚwieżeSource: Space-Track

Epoka: Sep 14, 2026, 14:13 UTC

1 11765U 80030A   26257.59302833  .00001811  00000-0  89878-4 0  9991
2 11765  66.0812 333.1570 0465337  49.7484 314.3360 14.58605859391960

Śledź COSMOS 1174 w czasie rzeczywistym z AllMySat

Download on the App Store